Temperature
9 9 9 9 9 9 9 9 9 9 9 9 9 9 9 10 10 10 10 10 10 10 10 10 10 10 10 10 10 10 10 10 10 10 10 10 10 10 10 10 10 10 10
8 8 8 8 9 8 8 8 8 8 8 8 8 9 9 9 9 9 9 9 9 9 9 9 9 9 9 9 9 9 9 9 9 9 9 9 10 9 10 10 10 10 10
8 8 8 8 8 8 8 8 8 8 8 8 8 8 8 8 8 8 8 8 8 9 9 8 9 9 9 9 9 9 9 9 9 9 9 9 9 9 9 9 9 9 9
7 7 7 7 7 7 7 7 7 7 7 7 7 7 7 7 7 7 7 8 8 8 8 8 8 8 8 8 8 9 8 8 9 9 9 9 9 9 9 9 9 9 9
7 7 7 7 7 7 7 7 7 7 7 6 6 7 7 7 7 7 7 7 7 7 7 8 8 8 8 8 8 8 8 8 8 8 8 8 8 8 8 8 8 8 8
6 6 6 6 6 6 6 6 6 6 6 6 6 6 6 6 6 6 6 6 6 6 7 7 7 7 7 7 8 8 8 8 8 8 8 8 8 8 8 8 8 8 8
5 5 5 6 5 6 5 5 5 5 5 5 5 5 5 5 5 5 6 6 6 6 6 6 6 7 7 7 7 7 7 7 7 7 7 7 7 7 7 7 7 7 7
5 5 5 5 5 5 5 5 5 5 5 5 4 4 4 4 5 5 5 5 5 5 5 5 6 6 6 6 6 6 7 7 7 7 7 7 7 7 7 7 7 7 7
4 4 4 4 4 4 4 4 4 4 4 4 4 4 4 3 3 4 4 5 5 5 5 5 5 5 5 6 6 6 6 6 6 6 6 6 6 6 6 6 6 6 6
3 4 3 3 4 4 4 4 4 4 3 4 3 3 3 3 3 3 3 4 4 4 4 4 4 5 5 5 5 5 5 5 5 5 5 5 5 5 5 6 6 6 6
3 3 3 3 3 3 3 3 3 3 3 3 3 3 3 3 3 2 2 3 3 3 3 4 4 4 4 4 5 5 5 5 5 5 5 5 5 5 5 5 5 5 5
2 2 2 2 2 2 2 3 3 3 2 2 2 2 2 2 2 2 2 2 2 3 3 3 3 4 4 4 4 4 4 4 4 4 4 4 4 4 4 4 4 4 5
2 2 2 1 2 2 2 2 2 2 2 2 2 2 2 2 2 2 2 1 1 2 2 2 3 3 3 3 3 4 4 4 4 4 4 4 4 4 4 4 4 4 4
1 1 1 1 1 1 1 1 1 1 1 1 1 1 1 1 1 1 1 1 1 1 1 2 2 2 2 2 3 3 3 3 3 3 3 3 3 3 3 3 3 3 3
0 0 0 0 0 0 0 0 0 1 1 1 1 1 1 1 1 0 0 0 0 -0 0 1 1 1 2 2 2 2 2 3 3 3 3 3 3 3 3 3 3 3 3
-1 -1 -1 -0 -0 -0 -0 -0 -0 -0 -0 -0 -0 -0 -0 -0 -0 -0 -0 -0 -0 -0 -1 0 1 1 1 1 1 1 2 2 2 2 2 2 2 2 2 2 2 2 2
-1 -1 -1 -1 -1 -1 -1 -1 -1 -1 -1 -1 -1 -1 -1 -1 -1 -1 -1 -1 -1 -1 -1 -0 -0 0 0 0 1 1 1 1 1 1 1 1 2 2 2 2 2 2 2
-2 -2 -2 -2 -2 -2 -2 -1 -1 -1 -1 -1 -1 -1 -1 -1 -1 -1 -1 -1 -1 -1 -1 -1 -1 -0 -0 -0 -0 0 0 0 1 1 1 1 1 1 1 1 1 1 1
-3 -3 -3 -3 -2 -2 -2 -2 -2 -2 -2 -2 -2 -2 -2 -2 -2 -1 -2 -2 -1 -1 -2 -2 -1 -1 -1 -1 -1 -1 -0 -0 -0 0 0 0 0 1 1 1 1 1 1
-4 -4 -4 -3 -3 -3 -3 -3 -3 -3 -3 -3 -3 -2 -2 -2 -2 -2 -2 -2 -2 -2 -2 -2 -2 -2 -1 -1 -1 -1 -1 -1 -0 -0 -0 -0 -0 0 0 -0 0 0 0
-5 -4 -4 -4 -4 -4 -4 -4 -4 -4 -4 -3 -3 -3 -3 -3 -3 -3 -3 -3 -3 -3 -3 -3 -2 -2 -2 -2 -2 -2 -2 -2 -1 -1 -1 -1 -1 -1 -0 -0 -0 -0 -0
-5 -5 -5 -5 -5 -5 -5 -5 -5 -5 -4 -4 -4 -4 -4 -4 -3 -3 -3 -3 -3 -3 -3 -3 -3 -3 -3 -3 -3 -3 -3 -3 -3 -2 -2 -2 -2 -1 -1 -1 -1 -1 -1
-6 -6 -6 -6 -6 -5 -5 -5 -6 -6 -5 -5 -5 -5 -5 -4 -4 -4 -4 -4 -4 -4 -4 -4 -4 -4 -4 -4 -4 -4 -4 -4 -4 -3 -3 -3 -2 -2 -2 -2 -2 -2 -2
-7 -7 -7 -7 -6 -6 -6 -6 -6 -6 -6 -6 -6 -6 -5 -5 -5 -5 -5 -5 -5 -5 -5 -5 -5 -5 -5 -5 -5 -5 -5 -5 -5 -4 -4 -4 -3 -3 -3 -3 -3 -3 -3
-8 -7 -7 -7 -7 -7 -7 -7 -7 -7 -7 -6 -6 -6 -6 -6 -6 -6 -6 -6 -6 -6 -6 -6 -6 -6 -6 -5 -5 -6 -5 -6 -5 -5 -5 -5 -4 -4 -4 -3 -3 -3 -4
-8 -8 -8 -8 -8 -8 -8 -7 -8 -8 -7 -7 -7 -7 -7 -7 -7 -7 -7 -7 -7 -7 -6 -6 -6 -6 -6 -6 -6 -6 -6 -6 -6 -6 -6 -6 -5 -5 -5 -4 -4 -4 -4
Wind_Speed
4 5 5 5 5 5 5 5 5 5 6 6 6 7 6 6 6 6 6 5 5 4 3 3 3 4 4 4 5 5 6 6 6 6 6 6 6 6 6 6 6 5 6
5 4 4 4 4 3 3 4 4 4 4 5 5 5 5 5 6 6 5 5 5 4 4 3 3 3 3 3 4 4 5 5 4 5 5 5 5 5 5 5 5 5 5
5 4 3 3 2 3 3 4 4 4 3 4 3 4 4 4 4 5 4 4 4 5 4 3 3 2 2 3 3 3 4 4 4 4 4 4 4 4 4 4 4 4 4
5 5 3 2 2 3 3 3 2 2 2 2 2 2 3 3 3 4 4 4 4 4 4 3 3 3 2 2 2 2 4 3 3 3 4 4 3 3 3 3 3 3 3
4 4 3 2 2 3 2 2 1 1 2 1 1 1 2 2 2 2 3 3 3 3 3 3 2 2 2 2 2 1 2 3 3 3 4 3 3 3 3 3 3 3 3
3 4 3 3 3 2 2 1 1 1 1 2 2 2 2 2 2 1 1 2 2 2 2 2 2 1 1 1 2 2 1 2 3 4 4 4 4 4 4 3 3 3 3
3 3 2 2 2 2 1 1 1 1 1 1 2 2 3 2 1 1 1 1 1 1 1 1 1 1 1 2 2 3 2 1 2 4 4 4 4 4 3 3 3 2 2
2 2 2 1 1 1 1 1 1 1 0 1 2 1 1 2 2 2 1 0 0 1 0 1 1 1 1 1 2 3 3 2 2 4 5 5 4 4 4 3 3 2 2
2 2 1 1 1 1 2 2 2 2 2 1 0 2 2 3 2 2 2 1 1 1 1 1 1 1 1 1 2 3 3 3 3 2 4 5 5 4 4 4 3 3 2
2 2 2 0 1 1 1 1 1 1 2 2 1 1 1 2 2 2 2 2 2 2 1 2 2 2 2 2 2 3 4 4 4 4 3 3 3 4 5 4 4 3 3
1 1 1 1 0 0 1 1 1 1 2 2 2 1 1 1 1 2 3 3 2 2 2 3 3 3 4 3 3 3 4 5 6 5 5 4 4 5 4 4 4 4 3
1 1 1 1 1 1 1 2 2 2 2 2 2 2 1 2 2 2 3 3 3 3 3 3 3 4 4 4 4 5 6 5 6 6 6 6 6 6 6 6 5 5 5
1 1 2 1 2 2 2 2 2 2 2 3 3 3 3 3 2 2 2 2 3 3 3 2 3 3 4 3 4 5 6 5 5 6 7 7 6 7 7 7 7 7 6
2 2 3 2 2 3 2 2 2 3 2 3 4 3 3 3 2 2 2 2 2 3 3 4 2 3 4 4 5 5 6 6 7 7 7 8 7 7 8 8 8 7 7
2 2 2 3 3 3 3 3 2 3 3 3 3 3 3 3 3 3 3 3 4 4 5 4 3 3 4 4 6 6 6 8 8 8 8 8 8 8 8 8 8 8 8
3 3 3 3 3 3 3 3 3 3 3 3 3 3 3 3 3 3 3 3 3 4 5 3 3 3 4 5 7 7 7 8 8 8 9 9 9 9 8 8 8 9 9
3 3 3 3 3 3 3 3 4 3 4 4 3 4 4 4 3 3 3 3 3 3 5 5 3 3 3 4 6 7 7 7 8 9 10 10 10 9 9 9 9 10 10
4 3 3 3 4 4 3 4 5 4 4 5 5 4 5 4 4 3 3 4 4 4 4 6 4 3 4 4 5 5 6 7 8 10 11 10 11 10 11 11 11 10 10
3 3 3 4 4 4 4 5 4 4 4 5 5 5 5 5 5 4 4 4 4 4 3 4 4 3 3 3 3 4 5 5 7 9 10 11 11 12 12 12 12 11 11
3 3 4 4 4 5 5 5 4 4 4 4 4 5 5 5 6 5 5 5 4 4 4 4 4 4 3 3 2 3 4 4 5 7 8 9 11 11 12 13 12 12 12
4 4 4 4 4 4 4 4 4 4 4 4 4 5 5 6 7 6 5 5 4 4 4 4 4 3 3 2 3 3 5 5 5 4 4 6 7 7 9 11 12 12 12
4 4 4 4 5 4 7 7 5 4 4 4 5 5 5 6 7 8 8 8 7 6 5 5 4 5 4 4 3 3 3 3 4 3 3 5 5 6 8 9 11 12 12
4 4 4 4 5 6 8 8 7 4 4 4 5 4 5 5 6 5 6 7 7 8 8 6 6 6 5 5 4 4 4 5 6 4 4 6 4 6 7 10 12 12 13
4 4 5 5 5 6 8 8 7 4 4 4 5 5 5 5 6 5 5 5 5 6 7 6 6 6 6 5 5 5 5 5 5 4 3 5 4 5 6 9 12 12 12
4 4 4 4 5 6 8 8 7 3 3 4 5 5 5 6 8 8 5 5 6 6 7 7 8 8 9 9 7 3 3 3 5 5 3 3 3 4 4 5 9 11 11
5 5 5 4 5 5 8 8 7 3 4 4 4 5 6 7 8 8 5 5 6 6 5 5 6 6 6 7 7 5 4 4 4 4 2 2 3 2 3 3 3 6 9
Wind_Direction
93 87 81 74 72 72 69 61 61 62 65 65 68 73 68 67 64 60 60 60 61 67 87 106 106 110 97 114 126 127 123 124 126 127 125 122 118 117 114 112 112 110 107
106 104 92 80 72 78 84 77 71 71 66 69 65 67 71 71 69 61 58 57 55 57 72 93 104 120 111 102 132 139 135 135 140 140 138 137 133 130 123 117 113 108 109
108 110 104 85 74 84 90 83 73 71 65 62 59 58 70 71 69 63 59 61 56 47 52 75 80 99 115 93 109 158 152 137 137 149 152 151 147 142 132 123 121 117 107
107 107 97 89 90 87 85 93 87 89 74 72 63 38 57 68 68 69 67 68 61 55 49 52 71 66 73 66 69 144 164 155 155 159 158 155 161 161 160 152 141 136 126
104 108 98 91 104 90 81 98 94 124 120 109 96 53 36 49 55 68 69 65 65 66 64 51 54 66 54 29 27 50 175 173 174 176 178 180 181 177 176 182 179 176 163
90 105 101 101 101 89 76 82 121 98 131 135 88 41 7 5 35 64 81 61 55 68 75 67 59 58 42 355 345 347 205 183 188 193 198 198 201 201 196 188 185 186 189
58 86 82 98 102 104 111 94 121 125 86 101 87 23 353 352 357 6 61 69 51 74 104 116 114 93 37 326 320 317 282 256 217 202 198 199 203 200 200 202 197 187 178
47 61 76 87 80 88 98 108 118 148 167 139 133 124 323 327 336 320 335 347 15 32 73 175 162 149 108 359 311 309 271 259 262 218 204 200 199 199 202 207 212 207 204
69 43 54 80 88 119 185 204 187 166 198 247 164 152 176 222 295 303 297 298 302 292 268 252 198 201 219 269 290 290 265 254 263 244 223 214 213 216 208 213 217 222 227
48 46 33 69 92 104 174 218 192 187 173 213 274 281 239 192 195 263 292 295 289 268 262 266 251 237 233 251 276 293 275 256 249 245 251 257 245 237 233 232 225 219 228
16 34 28 354 313 216 209 225 223 195 191 206 220 249 265 275 229 211 253 276 297 281 267 248 241 243 237 237 252 286 295 268 249 246 247 255 261 256 250 246 243 238 242
349 1 332 334 292 275 253 242 231 223 220 222 230 223 208 204 216 212 232 248 266 276 276 257 238 236 233 232 251 281 281 286 274 254 249 248 255 256 257 259 258 254 250
271 275 293 295 298 282 267 266 244 244 239 227 226 238 233 230 225 226 216 243 266 279 278 272 246 230 228 230 255 276 270 273 281 272 251 246 250 255 255 260 262 262 259
270 279 261 262 271 277 269 266 257 251 247 243 243 241 245 243 234 226 214 213 255 272 268 265 273 240 233 238 251 265 269 274 273 271 265 250 247 252 252 254 256 258 259
305 304 284 267 267 276 271 254 254 256 252 248 248 247 247 249 243 238 223 210 210 241 255 258 255 247 250 257 266 267 268 271 272 268 268 261 251 249 247 249 252 256 258
316 307 301 289 277 272 268 248 254 253 243 253 257 245 253 260 251 246 233 232 227 226 244 247 256 270 268 268 277 273 269 271 267 267 267 265 257 249 246 247 250 255 256
303 293 288 286 280 271 264 249 249 245 240 249 254 246 251 256 245 245 243 238 240 233 245 262 266 276 258 263 280 277 275 270 267 264 265 267 262 254 247 247 248 250 252
299 295 294 286 283 281 273 251 251 249 237 242 246 244 248 248 240 239 240 243 244 244 240 256 270 269 256 255 261 272 275 272 266 264 263 264 261 258 252 248 247 247 247
302 306 304 289 286 284 279 266 251 251 247 245 245 243 247 238 240 241 239 241 248 255 245 247 264 263 262 271 266 274 275 278 275 269 263 261 262 261 253 249 246 245 245
291 294 295 293 292 285 280 278 262 255 254 257 258 254 249 234 233 236 239 240 245 252 250 249 260 260 259 261 251 260 277 277 279 280 275 273 270 267 255 251 249 246 247
298 296 295 299 301 291 278 277 267 258 256 259 264 264 262 259 249 243 244 239 239 246 253 258 264 266 258 252 248 256 267 281 278 265 276 274 274 271 269 259 254 250 250
303 301 292 294 296 294 296 289 283 270 267 258 262 270 269 264 265 259 256 255 246 242 244 248 259 261 258 258 257 258 266 280 281 272 276 279 270 266 265 266 260 255 254
297 296 294 293 290 294 300 296 288 282 268 260 257 262 270 273 275 272 269 267 261 259 250 242 250 256 256 247 247 255 256 263 266 270 275 275 268 269 265 264 266 258 254
284 283 286 287 290 296 304 305 301 292 275 270 265 258 256 263 264 267 266 269 266 266 263 254 251 257 259 259 245 243 253 270 283 271 246 265 271 270 273 265 260 258 257
286 283 285 282 284 296 303 304 306 290 279 277 277 274 266 258 263 267 262 263 272 278 280 268 265 268 269 266 261 254 254 267 279 274 244 249 274 287 278 262 258 261 260
279 285 291 286 282 287 294 299 303 289 278 281 282 276 275 277 273 269 253 248 260 269 275 283 277 276 276 275 269 250 238 249 272 271 244 246 272 301 291 273 267 270 265
Height
1542 1542 1542 1543 1543 1543 1544 1544 1545 1545 1546 1546 1547 1548 1548 1548 1549 1550 1550 1551 1552 1552 1552 1553 1553 1553 1554 1554 1555 1555 1556 1556 1556 1557 1557 1557 1557 1558 1558 1558 1558 1558 1558
1540 1540 1541 1541 1541 1542 1542 1543 1543 1544 1544 1545 1545 1546 1546 1547 1547 1548 1548 1549 1550 1550 1551 1551 1552 1552 1552 1553 1553 1554 1554 1555 1555 1555 1556 1556 1557 1557 1557 1557 1557 1557 1558
1538 1538 1539 1539 1540 1540 1541 1541 1541 1542 1542 1543 1543 1544 1544 1545 1545 1546 1546 1547 1547 1548 1549 1549 1549 1550 1551 1551 1551 1552 1552 1553 1553 1554 1554 1555 1555 1556 1556 1556 1556 1556 1556
1536 1536 1537 1537 1538 1538 1538 1539 1539 1540 1540 1541 1541 1541 1542 1543 1543 1544 1544 1544 1545 1545 1546 1546 1547 1548 1548 1549 1549 1550 1550 1550 1551 1551 1552 1553 1553 1554 1554 1554 1555 1555 1555
1534 1534 1535 1535 1535 1536 1536 1537 1537 1538 1538 1538 1539 1539 1540 1540 1541 1541 1542 1542 1543 1543 1543 1544 1545 1545 1546 1546 1547 1547 1547 1547 1548 1548 1549 1550 1551 1551 1552 1552 1553 1553 1553
1531 1532 1532 1532 1533 1533 1533 1534 1535 1535 1536 1536 1536 1537 1537 1538 1538 1538 1539 1539 1540 1540 1540 1541 1542 1542 1543 1543 1544 1544 1544 1544 1545 1546 1546 1547 1548 1548 1549 1550 1550 1551 1551
1528 1529 1529 1529 1530 1530 1531 1531 1532 1532 1533 1533 1534 1534 1534 1535 1535 1536 1536 1536 1536 1537 1537 1538 1538 1539 1539 1540 1541 1541 1540 1541 1541 1542 1543 1544 1544 1545 1545 1546 1547 1548 1548
1525 1525 1526 1526 1527 1527 1528 1528 1528 1529 1530 1531 1531 1531 1532 1533 1532 1533 1533 1533 1533 1533 1534 1534 1535 1535 1536 1536 1537 1537 1538 1538 1538 1539 1540 1540 1541 1542 1542 1543 1544 1544 1545
1522 1522 1522 1523 1523 1524 1524 1525 1525 1526 1526 1527 1528 1529 1529 1528 1528 1529 1529 1529 1530 1530 1530 1531 1531 1531 1532 1533 1533 1534 1534 1534 1535 1535 1536 1537 1537 1538 1539 1539 1540 1540 1541
1518 1518 1519 1519 1520 1520 1521 1521 1522 1522 1523 1523 1524 1525 1526 1526 1526 1525 1525 1526 1526 1526 1527 1527 1528 1528 1528 1529 1529 1530 1530 1530 1531 1531 1532 1533 1533 1534 1535 1535 1536 1536 1537
1514 1515 1515 1515 1516 1516 1517 1518 1518 1519 1519 1520 1520 1521 1522 1522 1522 1522 1521 1521 1522 1522 1523 1523 1524 1524 1525 1525 1525 1525 1526 1526 1527 1527 1528 1529 1529 1530 1531 1531 1532 1532 1533
1510 1511 1512 1512 1512 1512 1513 1513 1514 1514 1515 1516 1516 1516 1517 1517 1517 1518 1517 1517 1517 1518 1519 1519 1520 1520 1521 1521 1521 1521 1522 1521 1522 1523 1524 1525 1526 1526 1526 1527 1528 1529 1529
1506 1506 1507 1508 1508 1508 1509 1509 1510 1510 1511 1511 1511 1512 1513 1513 1514 1514 1514 1513 1513 1514 1514 1515 1516 1516 1517 1517 1517 1517 1518 1517 1518 1519 1519 1520 1521 1522 1522 1523 1523 1524 1524
1502 1503 1504 1504 1504 1504 1504 1505 1505 1505 1506 1506 1507 1507 1508 1508 1509 1509 1510 1510 1509 1509 1509 1510 1510 1511 1512 1512 1512 1513 1513 1513 1513 1514 1514 1515 1516 1517 1517 1518 1519 1520 1520
1499 1499 1500 1499 1500 1500 1500 1500 1500 1500 1501 1501 1502 1502 1502 1503 1504 1504 1505 1506 1507 1505 1504 1504 1505 1506 1507 1507 1508 1508 1508 1508 1509 1509 1510 1511 1512 1512 1512 1513 1514 1515 1515
1495 1496 1495 1495 1495 1495 1495 1496 1495 1496 1496 1496 1496 1497 1497 1498 1498 1499 1499 1500 1501 1501 1499 1498 1500 1501 1501 1502 1502 1502 1502 1503 1503 1504 1505 1505 1506 1506 1507 1508 1508 1509 1510
1491 1491 1491 1491 1491 1490 1491 1491 1491 1491 1491 1491 1491 1491 1491 1492 1493 1493 1494 1495 1496 1496 1495 1494 1495 1496 1496 1497 1497 1497 1496 1497 1498 1499 1499 1499 1500 1501 1502 1502 1503 1504 1504
1487 1487 1486 1486 1486 1486 1486 1486 1486 1486 1485 1485 1486 1486 1486 1487 1487 1488 1488 1489 1490 1490 1490 1489 1489 1490 1491 1492 1492 1491 1491 1492 1492 1493 1493 1494 1494 1495 1496 1497 1497 1498 1498
1483 1482 1482 1482 1481 1481 1481 1481 1481 1481 1480 1480 1481 1480 1480 1481 1481 1482 1483 1483 1484 1485 1485 1485 1483 1484 1485 1486 1486 1486 1486 1486 1487 1487 1487 1488 1488 1489 1490 1491 1491 1492 1492
1478 1478 1478 1477 1477 1477 1477 1477 1476 1476 1475 1475 1475 1475 1475 1476 1476 1476 1477 1478 1479 1479 1479 1479 1478 1479 1479 1480 1480 1480 1480 1480 1481 1481 1481 1482 1482 1483 1484 1484 1485 1485 1485
1474 1474 1473 1473 1473 1472 1472 1472 1471 1471 1471 1470 1470 1470 1470 1471 1471 1471 1472 1472 1473 1473 1473 1473 1472 1472 1473 1474 1474 1474 1474 1474 1474 1475 1475 1475 1476 1476 1477 1477 1478 1478 1479
1471 1470 1469 1469 1468 1468 1467 1467 1467 1466 1466 1465 1465 1465 1465 1465 1465 1466 1466 1467 1467 1468 1467 1467 1466 1466 1467 1468 1469 1469 1469 1468 1467 1469 1469 1468 1470 1470 1470 1470 1471 1472 1473
1467 1466 1465 1465 1464 1463 1463 1463 1462 1462 1461 1460 1460 1460 1459 1459 1460 1460 1460 1461 1461 1462 1462 1463 1462 1461 1462 1463 1464 1463 1463 1463 1463 1463 1464 1462 1463 1463 1463 1464 1465 1465 1466
1462 1462 1461 1460 1460 1459 1459 1458 1458 1457 1456 1456 1455 1455 1455 1454 1454 1455 1454 1455 1455 1455 1456 1456 1456 1456 1457 1458 1458 1459 1458 1458 1458 1459 1459 1457 1456 1456 1457 1457 1458 1459 1459
1458 1458 1457 1456 1455 1455 1455 1454 1454 1452 1451 1451 1450 1450 1450 1449 1449 1450 1449 1449 1449 1449 1450 1450 1451 1451 1452 1453 1453 1453 1453 1453 1451 1451 1452 1452 1450 1450 1450 1450 1451 1452 1452
1454 1454 1453 1452 1451 1450 1450 1450 1450 1448 1447 1446 1446 1446 1446 1446 1445 1445 1445 1444 1444 1444 1444 1444 1445 1445 1446 1447 1447 1448 1447 1447 1446 1446 1446 1447 1446 1445 1443 1443 1444 1446 1446